Observations for Trim Patrick St
| Time | AQI | Temp °C | Hum % | Pres Pa | CO μg/m³ | H₂S μg/m³ | NO μg/m³ | NO₂ μg/m³ | O₃ μg/m³ | SO₂ μg/m³ | PM1 μg/m³ | PM2.5 μg/m³ | PM10 μg/m³ |
|---|---|---|---|---|---|---|---|---|---|---|---|---|---|
| Tuesday 4 August 2026 | |||||||||||||
| 02:57 | 1 | 16.3 | 87 | 38,460 | 0.14 | 0 | 1.34 | 27.5 | 53.42 | 0 | 8.86 | 11.64 | 12.81 |
| 02:56 | 1 | 16.3 | 87 | 38,460 | 0.13 | 0 | 1.4 | 25.82 | 46.47 | 0 | 8 | 11.64 | 12.81 |
| 02:55 | 1 | 16.3 | 86 | 38,460 | 0.14 | 0 | 1.33 | 21.81 | 31.6 | 0 | 8 | 12.35 | 13.58 |
| 02:54 | 1 | 16.3 | 86 | 38,460 | 0.14 | 0 | 1.21 | 25.72 | 47.03 | 0 | 8.86 | 12.36 | 13.59 |
| 02:53 | 1 | 16.3 | 86 | 38,460 | 0.14 | 0 | 1.4 | 24.1 | 40.34 | 0 | 8.86 | 15.1 | 16.61 |
| 02:52 | 1 | 16.3 | 86 | 38,460 | 0.15 | 0 | 1.11 | 27.12 | 47.33 | 0 | 9.71 | 13.05 | 14.36 |
| 02:51 | 1 | 16.3 | 86 | 38,460 | 0.14 | 0 | 1.24 | 25.65 | 48.81 | 0 | 8.86 | 12.37 | 13.61 |
| 02:50 | 1 | 16.3 | 86 | 38,460 | 0.14 | 0 | 1.3 | 27.4 | 54.4 | 0 | 7.14 | 11.67 | 12.84 |
| 02:49 | 1 | 16.3 | 86 | 38,460 | 0.14 | 0 | 1.37 | 24.37 | 44.06 | 0 | 8.86 | 12.35 | 13.58 |
| 02:48 | 1 | 16.3 | 86 | 38,460 | 0.13 | 0 | 1.49 | 24.37 | 42.86 | 0 | 8.86 | 14.41 | 15.85 |
| 02:46 | 1 | 16.4 | 86 | 38,460 | 0.14 | 0 | 1.58 | 22.99 | 44.52 | 0 | 8 | 12.35 | 13.58 |
| 02:44 | 1 | 16.4 | 87 | 38,460 | 0.14 | 0 | 1.25 | 22.74 | 40.65 | 0 | 8.86 | 12.34 | 13.57 |
| 02:43 | 1 | 16.4 | 86 | 38,460 | 0.12 | 0 | 1.15 | 21.14 | 31.85 | 0 | 8.86 | 12.35 | 13.58 |
| 02:42 | 1 | 16.4 | 86 | 38,460 | 0.13 | 0 | 0.96 | 28.27 | 59.65 | 0 | 8 | 11.67 | 12.84 |
| 02:41 | 2 | 16.4 | 86 | 38,460 | 0.13 | 0 | 0.87 | 28.74 | 72.33 | 0 | 9.71 | 12.36 | 13.59 |
| 02:39 | 2 | 16.4 | 86 | 38,460 | 0.14 | 0 | 1.06 | 27.57 | 73.06 | 0 | 10.57 | 13.73 | 15.1 |
| 02:38 | 2 | 16.4 | 86 | 38,460 | 0.14 | 0 | 1.03 | 22.97 | 43.92 | 0 | 8 | 10.98 | 12.08 |
| 02:35 | 1 | 16.4 | 86 | 38,460 | 0.14 | 0 | 1.46 | 22.44 | 38.14 | 0 | 8.86 | 10.98 | 12.08 |
| 02:34 | 2 | 16.4 | 86 | 38,460 | 0.17 | 0 | 1.46 | 26.83 | 54.64 | 0 | 8 | 10.99 | 12.09 |
| 02:33 | 2 | 16.4 | 86 | 38,460 | 0.14 | 0 | 1.42 | 24.99 | 45.3 | 0 | 8.86 | 13.03 | 14.34 |